GLO1774 SBGR-SBFN

Flight info

Callsign GLO1774
Flight time N/A
Altitude 37000
Route VUMEV UZ14 ESMOX/N0451F390 UZ14 AMBET UN857 FNR
Aircraft B38M/M-SDE1FGHILORVWXY/HB1

Departure

Time 2026-05-04 18:42
Airport São Paulo/Guarulhos–Governor André Franco Montoro International Airport (SBGR)

Arrival

Time N/A
Airport Fernando de Noronha Airport (SBFN)
Time Latitude Longitude Altitude Speed Heading
2026-05-04 18:33 -23.42743 -46.48738 2469 ft 0 kts 186°
2026-05-04 18:36 -23.42744 -46.48738 2469 ft 0 kts 185°
2026-05-04 18:37 -23.42775 -46.48741 2470 ft 9 kts 185°
2026-05-04 18:37 -23.42865 -46.48749 2467 ft 15 kts 186°
2026-05-04 18:37 -23.42969 -46.48761 2470 ft 15 kts 186°
2026-05-04 18:37 -23.43076 -46.48773 2467 ft 16 kts 185°
2026-05-04 18:38 -23.43166 -46.48735 2467 ft 15 kts 106°
2026-05-04 18:38 -23.43176 -46.48622 2468 ft 15 kts 97°
2026-05-04 18:38 -23.43187 -46.48503 2468 ft 16 kts 95°
2026-05-04 18:38 -23.43218 -46.48395 2469 ft 15 kts 145°
2026-05-04 18:39 -23.43292 -46.48367 2472 ft 1 kts 164°
2026-05-04 18:39 -23.43308 -46.48362 2470 ft 6 kts 163°
2026-05-04 18:39 -23.43370 -46.48341 2466 ft 12 kts 163°
2026-05-04 18:39 -23.43410 -46.48266 2465 ft 13 kts 75°
2026-05-04 18:40 -23.43405 -46.48251 2465 ft 0 kts 73°
2026-05-04 18:41 -23.43400 -46.48232 2463 ft 17 kts 74°
2026-05-04 18:41 -23.43286 -46.47813 2467 ft 97 kts 73°
2026-05-04 18:41 -23.43034 -46.46884 2474 ft 161 kts 73°
2026-05-04 18:41 -23.42678 -46.45548 2529 ft 178 kts 73°
2026-05-04 18:42 -23.42351 -46.44233 2789 ft 194 kts 72°
2026-05-04 18:42 -23.41941 -46.42690 3291 ft 221 kts 70°
2026-05-04 18:42 -23.41468 -46.41184 4486 ft 211 kts 70°
2026-05-04 18:42 -23.40987 -46.39617 4998 ft 232 kts 70°
2026-05-04 18:43 -23.40457 -46.37856 5393 ft 260 kts 70°
2026-05-04 18:43 -23.39832 -46.35981 6250 ft 262 kts 59°
2026-05-04 18:43 -23.38859 -46.34240 6951 ft 277 kts 54°
2026-05-04 18:43 -23.37796 -46.32446 7679 ft 289 kts 54°
2026-05-04 18:44 -23.36712 -46.30597 8624 ft 293 kts 55°
2026-05-04 18:44 -23.35986 -46.29350 9246 ft 296 kts 55°
2026-05-04 18:44 -23.34497 -46.26786 10420 ft 303 kts 55°
2026-05-04 18:44 -23.33361 -46.24828 10910 ft 321 kts 56°
2026-05-04 18:45 -23.32149 -46.22736 11401 ft 336 kts 56°
2026-05-04 18:45 -23.30884 -46.20557 12039 ft 345 kts 56°
2026-05-04 18:45 -23.29612 -46.18362 12847 ft 348 kts 57°
2026-05-04 18:45 -23.28308 -46.16117 13561 ft 355 kts 57°
2026-05-04 18:46 -23.26981 -46.13833 14286 ft 359 kts 57°
2026-05-04 18:46 -23.25637 -46.11522 14912 ft 365 kts 57°
2026-05-04 18:46 -23.24272 -46.09174 15565 ft 369 kts 56°
2026-05-04 18:46 -23.22892 -46.06806 16205 ft 374 kts 55°
2026-05-04 18:47 -23.21196 -46.04711 16788 ft 374 kts 35°
2026-05-04 18:47 -23.18975 -46.03304 17391 ft 373 kts 18°
2026-05-04 18:47 -23.16552 -46.02284 17948 ft 377 kts 17°
2026-05-04 18:47 -23.14091 -46.01286 18555 ft 380 kts 16°
2026-05-04 18:48 -23.11551 -46.00558 19056 ft 377 kts
2026-05-04 18:48 -23.08932 -46.00230 19558 ft 381 kts
2026-05-04 18:48 -23.06280 -45.99888 20081 ft 384 kts
2026-05-04 18:48 -23.03616 -45.99556 20594 ft 388 kts
2026-05-04 18:49 -23.00921 -45.99225 21092 ft 392 kts